• In Uzbekistan
  • List of Countries
  • For 7 days
  • Water Temperature
  • Satellite Maps
  • Weather Map
  • Weather Widgets
  • user-avatar
    Login

    Hourly Weather Riga

    Today, 17 January, Thursday

    Time Temperature Precipitation Wind Pressure Humidity
    00:00 -3°C° 0.2 mm 7 mps 743 mmHg 92%
    01:00 -2°C° 0.2 mm 7 mps 742 mmHg 93%
    02:00 0°C° 0 mm 8 mps 741 mmHg 94%
    03:00 0°C° 0.8 mm 7 mps 741 mmHg 94%
    04:00 0°C° 0.8 mm 7 mps 740 mmHg 93%
    05:00 +2°C° 0.8 mm 7 mps 740 mmHg 93%
    06:00 +2°C° 0.4 mm 7 mps 739 mmHg 92%
    07:00 +2°C° 0.4 mm 7 mps 739 mmHg 90%
    08:00 +1°C° 0.4 mm 8 mps 739 mmHg 89%
    09:00 +1°C° 0.2 mm 8 mps 738 mmHg 88%
    10:00 0°C° 0.2 mm 8 mps 738 mmHg 87%
    11:00 0°C° 0.2 mm 8 mps 738 mmHg 85%
    12:00 0°C° 0.2 mm 7 mps 738 mmHg 86%
    13:00 +2°C° 0.2 mm 7 mps 738 mmHg 86%
    14:00 +2°C° 0.2 mm 7 mps 738 mmHg 87%
    15:00 +1°C° 0.2 mm 6 mps 738 mmHg 88%
    16:00 +1°C° 0.2 mm 6 mps 739 mmHg 88%
    17:00 +1°C° 0.2 mm 5 mps 739 mmHg 89%
    18:00 0°C° 0.2 mm 5 mps 740 mmHg 88%
    19:00 0°C° 0.2 mm 5 mps 740 mmHg 88%
    20:00 -1°C° 0.2 mm 5 mps 741 mmHg 87%
    21:00 -2°C° 0 mm 4 mps 742 mmHg 85%
    22:00 -2°C° 0 mm 4 mps 742 mmHg 83%
    23:00 -3°C° 0 mm 4 mps 743 mmHg 81%

    Tomorrow, 18 January, Friday

    Time Temperature Precipitation Wind Pressure Humidity
    00:00 -3°C° 0 mm 4 mps 744 mmHg 79%
    01:00 -5°C° 0 mm 5 mps 745 mmHg 77%
    02:00 -5°C° 0 mm 5 mps 745 mmHg 75%
    03:00 -4°C° 0 mm 4 mps 746 mmHg 75%
    04:00 -4°C° 0 mm 4 mps 747 mmHg 74%
    05:00 -5°C° 0 mm 3 mps 747 mmHg 73%
    06:00 -4°C° 0 mm 2 mps 748 mmHg 73%
    07:00 -4°C° 0 mm 2 mps 748 mmHg 73%
    08:00 -2°C° 0 mm 1 mps 749 mmHg 73%
    09:00 -4°C° 0 mm 2 mps 749 mmHg 73%
    10:00 -3°C° 0 mm 2 mps 749 mmHg 73%
    11:00 -4°C° 0 mm 3 mps 749 mmHg 72%
    12:00 -4°C° 0 mm 3 mps 750 mmHg 71%
    13:00 -3°C° 0 mm 4 mps 750 mmHg 70%
    14:00 -4°C° 0 mm 5 mps 750 mmHg 68%
    15:00 -4°C° 0 mm 5 mps 751 mmHg 70%
    16:00 -3°C° 0 mm 4 mps 751 mmHg 72%
    17:00 -3°C° 0 mm 4 mps 752 mmHg 74%
    18:00 -4°C° 0.1 mm 5 mps 752 mmHg 75%
    19:00 -5°C° 0.1 mm 5 mps 752 mmHg 76%
    20:00 -5°C° 0.1 mm 5 mps 753 mmHg 77%
    21:00 -5°C° 0.1 mm 5 mps 753 mmHg 76%
    22:00 -5°C° 0.1 mm 5 mps 754 mmHg 75%
    23:00 -5°C° 0.1 mm 5 mps 754 mmHg 74%

    Day after tomorrow, 19 January, Saturday

    Time Temperature Precipitation Wind Pressure Humidity
    00:00 -5°C° 0 mm 5 mps 755 mmHg 74%
    01:00 -5°C° 0 mm 5 mps 755 mmHg 74%
    02:00 -5°C° 0 mm 5 mps 755 mmHg 74%
    03:00 -5°C° 0.1 mm 5 mps 755 mmHg 75%
    04:00 -5°C° 0.1 mm 5 mps 755 mmHg 77%
    05:00 -5°C° 0.1 mm 5 mps 756 mmHg 78%
    06:00 -5°C° 0 mm 5 mps 756 mmHg 78%
    07:00 -5°C° 0 mm 5 mps 756 mmHg 78%
    08:00 -5°C° 0 mm 5 mps 756 mmHg 79%
    09:00 -5°C° 0 mm 5 mps 757 mmHg 79%
    10:00 -4°C° 0 mm 5 mps 757 mmHg 79%
    11:00 -4°C° 0 mm 5 mps 757 mmHg 79%
    12:00 -2°C° 0 mm 5 mps 757 mmHg 75%
    13:00 -2°C° 0 mm 4 mps 757 mmHg 72%
    14:00 -2°C° 0 mm 4 mps 757 mmHg 69%
    15:00 -3°C° 0 mm 4 mps 758 mmHg 71%
    16:00 -3°C° 0 mm 4 mps 758 mmHg 74%
    17:00 -4°C° 0 mm 4 mps 758 mmHg 76%
    18:00 -4°C° 0 mm 4 mps 759 mmHg 78%
    19:00 -4°C° 0 mm 4 mps 759 mmHg 79%
    20:00 -5°C° 0 mm 4 mps 759 mmHg 80%
    21:00 -5°C° 0 mm 4 mps 759 mmHg 81%
    22:00 -5°C° 0 mm 4 mps 759 mmHg 81%
    23:00 -5°C° 0 mm 4 mps 759 mmHg 81%

    20 January, Sunday

    Time Temperature Precipitation Wind Pressure Humidity
    00:00 -5°C° 0 mm 5 mps 758 mmHg 81%
    01:00 -5°C° 0 mm 5 mps 758 mmHg 81%
    02:00 -5°C° 0 mm 5 mps 758 mmHg 81%
    03:00 -4°C° 0 mm 6 mps 757 mmHg 83%
    04:00 -4°C° 0 mm 6 mps 757 mmHg 85%
    05:00 -3°C° 0 mm 6 mps 757 mmHg 86%
    06:00 -3°C° 0.3 mm 6 mps 757 mmHg 88%
    07:00 -2°C° 0.3 mm 5 mps 757 mmHg 89%
    08:00 -2°C° 0.3 mm 5 mps 757 mmHg 90%
    09:00 -2°C° 0.4 mm 4 mps 757 mmHg 87%
    10:00 -2°C° 0.4 mm 4 mps 757 mmHg 83%
    11:00 -2°C° 0.4 mm 4 mps 758 mmHg 80%
    12:00 -2°C° 0 mm 4 mps 758 mmHg 75%
    13:00 -2°C° 0 mm 4 mps 758 mmHg 70%
    14:00 -2°C° 0 mm 4 mps 758 mmHg 65%
    15:00 -3°C° 0 mm 4 mps 758 mmHg 67%
    16:00 -4°C° 0 mm 4 mps 758 mmHg 70%
    17:00 -5°C° 0 mm 4 mps 758 mmHg 72%
    18:00 -5°C° 0 mm 4 mps 758 mmHg 72%
    19:00 -5°C° 0 mm 4 mps 758 mmHg 73%
    20:00 -5°C° 0 mm 4 mps 759 mmHg 73%
    21:00 -5°C° 0.1 mm 4 mps 759 mmHg 75%
    22:00 -5°C° 0.1 mm 3 mps 760 mmHg 76%
    23:00 -6°C° 0.1 mm 3 mps 760 mmHg 78%

    21 January, Monday

    Time Temperature Precipitation Wind Pressure Humidity
    00:00 -6°C° 0 mm 3 mps 760 mmHg 79%
    01:00 -5°C° 0 mm 2 mps 761 mmHg 80%
    02:00 -5°C° 0 mm 2 mps 761 mmHg 81%
    03:00 -6°C° 0 mm 3 mps 761 mmHg 81%
    04:00 -6°C° 0 mm 3 mps 761 mmHg 81%
    05:00 -7°C° 0 mm 4 mps 761 mmHg 81%
    06:00 -7°C° 0 mm 4 mps 761 mmHg 80%
    07:00 -7°C° 0 mm 4 mps 761 mmHg 79%
    08:00 -7°C° 0 mm 4 mps 761 mmHg 78%
    09:00 -5°C° 0 mm 4 mps 762 mmHg 76%
    10:00 -5°C° 0 mm 4 mps 762 mmHg 75%
    11:00 -4°C° 0 mm 4 mps 762 mmHg 74%
    12:00 -5°C° 0 mm 5 mps 762 mmHg 72%
    13:00 -4°C° 0 mm 5 mps 762 mmHg 70%
    14:00 -4°C° 0 mm 5 mps 762 mmHg 68%
    15:00 -4°C° 0 mm 5 mps 762 mmHg 70%
    16:00 -5°C° 0 mm 5 mps 762 mmHg 72%
    17:00 -5°C° 0 mm 4 mps 762 mmHg 74%
    18:00 -5°C° 0 mm 4 mps 762 mmHg 75%
    19:00 -5°C° 0 mm 4 mps 762 mmHg 77%
    20:00 -7°C° 0 mm 4 mps 762 mmHg 78%
    21:00 -7°C° 0 mm 4 mps 762 mmHg 79%
    22:00 -7°C° 0 mm 4 mps 762 mmHg 79%
    23:00 -7°C° 0 mm 4 mps 762 mmHg 80%

    22 January, Tuesday

    Time Temperature Precipitation Wind Pressure Humidity
    00:00 -6°C° 0 mm 3 mps 762 mmHg 80%
    01:00 -6°C° 0 mm 3 mps 762 mmHg 81%
    02:00 -6°C° 0 mm 3 mps 762 mmHg 81%
    03:00 -6°C° 0 mm 3 mps 762 mmHg 81%
    04:00 -6°C° 0 mm 3 mps 761 mmHg 81%
    05:00 -6°C° 0 mm 3 mps 761 mmHg 81%
    06:00 -6°C° 0 mm 3 mps 761 mmHg 82%
    07:00 -6°C° 0 mm 3 mps 761 mmHg 83%
    08:00 -6°C° 0 mm 3 mps 761 mmHg 84%
    09:00 -6°C° 0 mm 3 mps 762 mmHg 85%
    10:00 -5°C° 0 mm 3 mps 762 mmHg 87%
    11:00 -5°C° 0 mm 3 mps 762 mmHg 89%
    12:00 -4°C° 0 mm 3 mps 762 mmHg 89%
    13:00 -3°C° 0 mm 2 mps 762 mmHg 89%
    14:00 -3°C° 0 mm 2 mps 762 mmHg 89%
    15:00 -1°C° 0 mm 1 mps 762 mmHg 91%
    16:00 -1°C° 0 mm 1 mps 762 mmHg 92%
    17:00 -1°C° 0 mm 1 mps 762 mmHg 94%
    18:00 -2°C° 0 mm 1 mps 762 mmHg 95%
    19:00 -2°C° 0 mm 1 mps 762 mmHg 95%
    20:00 -2°C° 0 mm 1 mps 763 mmHg 95%
    21:00 -4°C° 0 mm 2 mps 763 mmHg 95%
    22:00 -4°C° 0 mm 2 mps 763 mmHg 95%
    23:00 -4°C° 0 mm 2 mps 763 mmHg 94%
    Show more